#timestamp,LO_Frequency,Hit,StdDev 
1564758015.9,286047000.3,N
1564758035.7,286047000.6,N
1564758055.6,286047002.4,N
1564758075.4,286047000.0,N
1564758095.2,286046998.1,N
1564758115.1,286047000.9,N
1564758116.0,286047000.9,N
1564758135.8,286047000.1,N
1564758155.7,286047002.4,N
1564758175.5,286046999.0,N
1564758195.3,286046997.5,N
1564758215.2,286046997.0,N
1564758235.0,286046997.0,N
1564758235.9,286046997.0,N
1564758255.8,286046995.0,N
1564758275.6,286046997.9,N
1564758295.4,286046997.4,N
1564758315.3,286046997.2,N
1564758335.1,286046995.2,N
1564758355.8,286046998.0,N
1564758375.7,286046997.4,N
1564758395.5,286046995.3,N
1564758415.4,286046996.1,N
1564758435.2,286046995.1,N
1564758455.0,286046995.9,N
1564758455.9,286046995.9,N
1564758475.8,286046995.5,N
1564758495.6,286046993.8,N
1564758515.4,286046995.3,N
1564758535.3,286046995.4,N
1564758555.1,286046997.3,N
1564758575.9,286046997.0,N
1564758595.7,286046999.1,N
1564758615.5,286046998.6,N
1564758635.4,286046998.9,N
1564758655.2,286046998.9,N
1564758675.1,286046998.3,N
1564758676.0,286046998.3,N
1564758695.8,286047000.4,N
1564758715.6,286047000.5,N
1564758735.5,286046998.9,N
1564758755.3,286046996.5,N
1564758775.2,286046999.3,N
1564758795.9,286046996.7,N
1564758815.7,286047000.2,N
1564758835.6,286046999.7,N
1564758855.4,286047001.6,N
1564758875.2,286047002.3,N
1564758895.1,286047011.9,Y
1564758896.0,286047001.4,P
1564758915.8,286047005.7,P
1564758935.7,286047004.8,N
1564758955.5,286047003.3,N
1564758975.3,286047005.7,N
1564758995.2,286047003.0,N
1564759015.0,286047006.7,N
1564759015.9,286047006.7,N
1564759035.8,286047005.0,N
1564759055.6,286047006.7,N
1564759075.4,286047010.8,Y
1564759095.3,286047003.4,P
1564759115.1,286047004.3,P
1564759135.9,286047003.8,P
1564759155.7,286047003.2,Y
1564759175.5,286047002.5,P
1564759195.4,286047001.7,N
1564759215.2,286047004.3,P
1564759235.1,286047001.6,N
1564759236.0,286047001.6,N
1564759255.8,286047001.3,N
1564759275.6,286047003.5,Y
1564759295.5,286047000.3,P
1564759315.3,286047002.7,N
1564759335.2,286047002.4,N
1564759355.9,286047000.6,N
1564759375.7,286047002.4,N
1564759395.6,286047002.6,N
1564759415.4,286047002.5,N
1564759435.2,286047000.8,N
1564759455.1,286047002.4,N
1564759456.0,286047002.4,N
1564759475.8,286047001.7,N
1564759495.7,286047001.7,N
1564759515.5,286047003.8,Y
1564759535.3,286047002.4,P
1564759555.2,286047001.0,P
1564759575.0,286047000.6,N
1564759575.9,286047000.6,N
1564759595.8,286047000.5,N
1564759615.6,286046998.2,N
1564759635.4,286047002.5,N
1564759655.3,286047001.6,N
1564759675.1,286047005.8,Y
1564759695.9,286047002.1,P
1564759715.7,286047004.3,P
1564759735.5,286047004.3,P
1564759755.4,286047005.8,Y
1564759775.2,286047003.6,P
1564759795.0,286047004.1,P
1564759796.0,286047004.1,P
1564759815.8,286047004.4,Y
1564759835.6,286047000.4,P
1564759855.5,286046998.2,N
1564759875.3,286046999.9,N
1564759895.1,286046999.8,N
1564759915.9,286047001.8,N
1564759935.7,286047002.3,N
1564759955.6,286047000.5,N
1564759975.4,286047001.2,N
1564759995.2,286047001.2,N
1564760015.1,286047002.7,N
1564760016.0,286047002.7,N
1564760035.8,286047001.7,N
1564760055.6,286047002.2,N
1564760075.5,286047001.0,N
1564760095.3,286047002.3,N
1564760115.2,286047002.6,N
1564760135.9,286047003.3,N
1564760155.7,286047003.4,N
1564760175.6,286047004.2,Y
1564760195.4,286047002.2,P
1564760215.2,286047002.9,P
1564760235.1,286047005.9,P
1564760236.0,286047005.9,Y
1564760255.8,286047001.5,P
1564760275.7,286047004.1,P
1564760295.5,286047003.3,P
1564760315.3,286047007.6,Y
1564760335.2,286047002.5,P
1564760355.0,286047004.4,P
1564760355.9,286047004.4,P
1564760375.8,286047004.4,Y
1564760395.6,286046997.1,P
1564760415.4,286046998.8,N
1564760435.3,286046993.3,N
1564760455.1,286046997.6,N
1564760475.9,286046994.9,N
1564760495.7,286046995.3,N
1564760515.5,286046996.9,N
1564760535.4,286047001.2,N
1564760555.2,286046997.2,N
1564760575.0,286047000.8,N
1564760575.9,286047000.8,N
1564760595.8,286046999.3,N
1564760615.6,286047000.1,N
1564760635.5,286047000.2,N
1564760655.3,286047000.0,N
1564760675.1,286047002.5,N
1564760695.9,286047001.9,N
1564760715.7,286047003.5,N
1564760735.5,286047003.7,N
1564760755.4,286047011.9,Y
1564760775.2,286047002.9,P
1564760795.1,286047004.8,N
1564760796.0,286047004.8,N
1564760815.8,286047005.3,N
1564760835.7,286047007.5,Y
1564760855.5,286047005.7,P
1564760875.3,286047005.6,P
1564760895.2,286047003.4,P
1564760915.0,286047005.6,Y
1564760915.9,286047005.6,P
1564760935.8,286047000.4,N
1564760955.6,286047002.4,N
1564760975.4,286046999.0,N
1564760995.3,286046998.9,N
1564761015.1,286047002.8,N
1564761035.8,286047000.6,N
1564761055.7,286047000.7,N
1564761075.5,286046999.9,N
1564761095.4,286046999.2,N
1564761115.2,286047002.7,N
1564761135.0,286046998.6,N
1564761135.9,286046998.6,N
1564761155.8,286046999.9,N
1564761175.6,286047000.6,N
1564761195.4,286047002.7,N
1564761215.3,286047001.6,N
1564761235.1,286047001.6,N
1564761255.9,286047004.0,N
1564761305.7,286047001.6,E
1564761315.6,286047002.0,N
1564761335.5,286047000.4,P
1564761355.3,286047000.2,N
1564761375.2,286047002.4,N
1564761395.9,286047000.7,N
1564761415.7,286047001.0,N
1564761435.6,286047000.1,N
1564761455.4,286047002.3,N
1564761475.2,286047000.0,N
1564761495.1,286047002.5,N
1564761496.0,286047002.5,N
1564761515.8,286047002.8,N
1564761535.7,286047000.4,N
1564761555.5,286047000.8,N
1564761575.3,286047000.7,N
1564761595.2,286046998.3,N
